Date String (YYYY-MM-DD hh:mm:ss) UTC,Instrument flags,absolute air pressure of the measurement (hPa),sample flow rate (lpm),inlet stack bypass flow (lpm),air temperature of the measurement (°C),ambient temperature measured by the external sensor (°C),aerosol sample conditioner tube jacket temperature (°C),OPC LED temperature (°C),internal box temperature (°C),relative humidity of the measurement (%),span deviation,mass concentration of particles derived from Lorenz-Mie calculation of OPC scattering (μg/m³),mass concentration of particles derived from Lorenz-Mie calculation of OPC scattering (μg/m³),mass concentration of particles derived from Lorenz-Mie calculation of OPC scattering (μg/m³)
DateTimeUTC,F1_M11,P_M11,Q1_M11,Q2_M11,T1_M11,T2_M11,T3_M11,T4_M11,T5_M11,U1_M11,ZSPAN_M11,X0_M11,X2_M11,X1_M11
2024-05-17 22:00:00,SystemResetWarning,0820.6,4.98,000.00,023.6,022.8,000.0,031.6,025.2,014.6,0000.0,0008.85,0002.87,0002.08
2024-05-17 22:01:00,SystemResetWarning,0820.8,5.00,000.00,023.3,021.1,000.0,031.7,024.3,014.8,0000.0,0007.72,0002.83,0002.08
2024-05-17 22:02:00,SystemResetWarning,0820.7,5.01,000.00,023.1,020.7,000.0,031.7,024.1,015.6,0000.0,0007.50,0002.86,0002.07
2024-05-17 22:03:00,SystemResetWarning,0820.6,5.00,000.00,023.1,021.3,000.0,031.6,024.4,015.3,0000.0,0007.49,0002.85,0002.06
2024-05-17 22:04:00,SystemResetWarning,0820.9,5.00,000.00,023.1,021.7,000.0,031.5,024.7,014.4,0000.0,0007.62,0002.82,0002.04
2024-05-17 22:05:00,SystemResetWarning,0820.6,5.00,000.00,023.2,022.1,000.0,031.5,024.9,013.6,0000.0,0007.71,0002.85,0002.04
2024-05-17 22:06:00,SystemResetWarning,0820.9,5.00,000.00,023.3,022.5,000.0,031.5,025.0,014.3,0000.0,0007.12,0002.86,0002.03
2024-05-17 22:07:00,SystemResetWarning,0820.6,5.00,000.00,023.4,022.8,000.0,031.5,025.2,014.7,0000.0,0006.98,0002.87,0002.02
2024-05-17 22:08:00,SystemResetWarning,0820.4,5.01,000.00,023.5,023.1,000.0,031.5,025.4,014.3,0000.0,0006.97,0002.90,0002.02
2024-05-17 22:09:00,SystemResetWarning,0820.5,5.00,000.00,023.6,023.3,000.0,031.5,025.5,014.4,0000.0,0006.73,0002.89,0002.02
2024-05-17 22:10:00,SystemResetWarning,0820.7,4.98,000.00,023.5,022.2,000.0,031.6,024.9,014.1,0000.0,0007.09,0002.88,0002.02
2024-05-17 22:11:00,SystemResetWarning,0820.9,5.02,000.00,023.2,020.7,000.0,031.7,024.2,013.5,0000.0,0007.25,0002.90,0002.01
2024-05-17 22:12:00,SystemResetWarning,0820.9,5.00,000.00,023.1,021.0,000.0,031.7,024.3,013.9,0000.0,0007.44,0002.92,0002.00
2024-05-17 22:13:00,SystemResetWarning,0821.0,4.98,000.00,023.1,021.5,000.0,031.6,024.6,014.8,0000.0,0007.43,0002.88,0001.99
2024-05-17 22:14:00,SystemResetWarning,0820.7,5.01,000.00,023.2,021.9,000.0,031.5,024.8,014.7,0000.0,0007.25,0002.88,0001.99
2024-05-17 22:15:00,SystemResetWarning,0820.9,5.01,000.00,023.3,022.3,000.0,031.5,025.0,014.9,0000.0,0006.91,0002.88,0001.99
2024-05-17 22:16:00,SystemResetWarning,0820.6,4.99,000.00,023.4,022.7,000.0,031.5,025.2,014.6,0000.0,0006.64,0002.88,0001.99
2024-05-17 22:17:00,SystemResetWarning,0820.5,5.00,000.00,023.5,023.0,000.0,031.5,025.3,013.6,0000.0,0006.60,0002.87,0001.98
2024-05-17 22:18:00,SystemResetWarning,0820.9,4.99,000.00,023.6,023.3,000.0,031.5,025.5,013.4,0000.0,0006.45,0002.88,0001.98
2024-05-17 22:19:00,SystemResetWarning,0820.7,4.99,000.00,023.7,023.2,000.0,031.6,025.4,013.1,0000.0,0007.28,0002.89,0001.98
2024-05-17 22:20:00,SystemResetWarning,0820.7,5.00,000.00,023.5,021.5,000.0,031.7,024.5,013.9,0000.0,0007.56,0002.90,0001.98
2024-05-17 22:21:00,SystemResetWarning,0820.7,5.01,000.00,023.2,020.8,000.0,031.7,024.1,013.9,0000.0,0007.42,0002.87,0001.99
2024-05-17 22:22:00,SystemResetWarning,0820.4,5.01,000.00,023.1,021.3,000.0,031.7,024.4,014.5,0000.0,0007.63,0002.88,0002.00
2024-05-17 22:23:00,SystemResetWarning,0820.5,4.99,000.00,023.2,021.7,000.0,031.6,024.7,015.0,0000.0,0007.62,0002.86,0002.00
2024-05-17 22:24:00,SystemResetWarning,0820.8,5.00,000.00,023.2,022.1,000.0,031.5,024.9,014.4,0000.0,0007.60,0002.90,0002.02
2024-05-17 22:25:00,SystemResetWarning,0820.6,5.01,000.00,023.3,022.5,000.0,031.5,025.1,013.6,0000.0,0007.58,0002.93,0002.03
2024-05-17 22:26:00,SystemResetWarning,0820.6,5.00,000.00,023.4,022.9,000.0,031.5,025.2,013.4,0000.0,0007.52,0002.93,0002.03
2024-05-17 22:27:00,SystemResetWarning,0820.8,4.99,000.00,023.5,023.1,000.0,031.5,025.4,013.2,0000.0,0007.47,0002.87,0002.02
2024-05-17 22:28:00,SystemResetWarning,0820.6,4.99,000.00,023.6,023.4,000.0,031.6,025.5,013.0,0000.0,0007.52,0002.88,0002.02
2024-05-17 22:29:00,SystemResetWarning,0820.5,4.99,000.00,023.7,023.4,000.0,031.6,025.5,012.9,0000.0,0007.47,0002.89,0002.03
2024-05-17 22:30:00,SystemResetWarning,0820.7,5.00,000.00,023.5,021.8,000.0,031.7,024.7,013.0,0000.0,0006.98,0002.88,0002.04
2024-05-17 22:31:00,SystemResetWarning,0820.8,5.00,000.00,023.2,020.7,000.0,031.7,024.2,012.6,0000.0,0006.91,0002.84,0002.04
2024-05-17 22:32:00,SystemResetWarning,0821.0,5.02,000.00,023.2,021.2,000.0,031.7,024.4,012.6,0000.0,0006.81,0002.87,0002.03
2024-05-17 22:33:00,SystemResetWarning,0820.7,4.99,000.00,023.2,021.6,000.0,031.6,024.6,013.2,0000.0,0006.75,0002.94,0002.03
2024-05-17 22:34:00,SystemResetWarning,0820.9,4.99,000.00,023.3,022.0,000.0,031.5,024.9,014.1,0000.0,0006.47,0002.94,0002.03
2024-05-17 22:35:00,SystemResetWarning,0820.8,5.01,000.00,023.4,022.4,000.0,031.5,025.1,014.4,0000.0,0006.39,0002.89,0002.02
2024-05-17 22:36:00,SystemResetWarning,0820.7,5.01,000.00,023.4,022.7,000.0,031.5,025.2,013.8,0000.0,0006.32,0002.83,0002.00
2024-05-17 22:37:00,SystemResetWarning,0820.9,4.99,000.00,023.5,023.0,000.0,031.6,025.4,014.2,0000.0,0006.39,0002.84,0002.01
2024-05-17 22:38:00,SystemResetWarning,0820.5,4.99,000.00,023.6,023.3,000.0,031.6,025.5,014.5,0000.0,0007.67,0002.83,0002.02
2024-05-17 22:39:00,SystemResetWarning,0820.4,4.99,000.00,023.7,022.8,000.0,031.7,025.3,013.9,0000.0,0007.65,0002.78,0002.03
2024-05-17 22:40:00,SystemResetWarning,0820.4,5.00,000.00,023.4,021.1,000.0,031.7,024.4,014.3,0000.0,0007.83,0002.76,0002.02
2024-05-17 22:41:00,SystemResetWarning,0820.3,5.01,000.00,023.2,020.9,000.0,031.7,024.2,014.3,0000.0,0008.02,0002.73,0002.01
2024-05-17 22:42:00,SystemResetWarning,0820.7,5.00,000.00,023.2,021.4,000.0,031.7,024.5,014.1,0000.0,0007.76,0002.77,0002.01
2024-05-17 22:43:00,SystemResetWarning,0820.8,5.00,000.00,023.2,021.8,000.0,031.6,024.8,014.3,0000.0,0007.72,0002.79,0002.03
2024-05-17 22:44:00,SystemResetWarning,0820.6,5.01,000.00,023.3,022.2,000.0,031.5,025.0,015.5,0000.0,0007.54,0002.73,0002.03
2024-05-17 22:45:00,SystemResetWarning,0820.8,4.99,000.00,023.4,022.6,000.0,031.5,025.2,014.5,0000.0,0007.59,0002.77,0002.03
2024-05-17 22:46:00,SystemResetWarning,0820.5,5.00,000.00,023.5,022.9,000.0,031.6,025.3,014.7,0000.0,0007.61,0002.80,0002.03
2024-05-17 22:47:00,SystemResetWarning,0820.7,5.00,000.00,023.6,023.2,000.0,031.6,025.5,014.4,0000.0,0007.57,0002.80,0002.03
2024-05-17 22:48:00,SystemResetWarning,0820.4,5.00,000.00,023.7,023.4,000.0,031.6,025.5,014.8,0000.0,0007.49,0002.78,0002.04
2024-05-17 22:49:00,SystemResetWarning,0820.8,4.98,000.00,023.6,022.1,000.0,031.7,024.9,014.4,0000.0,0006.52,0002.80,0002.03
2024-05-17 22:50:00,SystemResetWarning,0820.6,5.01,000.00,023.3,020.8,000.0,031.7,024.2,015.1,0000.0,0006.10,0002.87,0002.04
2024-05-17 22:51:00,SystemResetWarning,0820.7,5.01,000.00,023.2,021.2,000.0,031.7,024.3,014.9,0000.0,0006.26,0002.92,0002.03
2024-05-17 22:52:00,SystemResetWarning,0820.7,4.99,000.00,023.2,021.6,000.0,031.6,024.6,014.0,0000.0,0004.89,0002.88,0002.03
2024-05-17 22:53:00,SystemResetWarning,0820.6,5.01,000.00,023.3,022.0,000.0,031.6,024.9,013.9,0000.0,0004.86,0002.93,0002.04
2024-05-17 22:54:00,SystemResetWarning,0820.6,5.00,000.00,023.3,022.4,000.0,031.6,025.0,013.7,0000.0,0004.97,0002.99,0002.04
2024-05-17 22:55:00,SystemResetWarning,0820.6,4.99,000.00,023.4,022.7,000.0,031.6,025.2,013.4,0000.0,0004.96,0003.00,0002.04
2024-05-17 22:56:00,SystemResetWarning,0820.6,5.00,000.00,023.5,023.0,000.0,031.6,025.4,013.7,0000.0,0004.76,0002.94,0002.05
2024-05-17 22:57:00,SystemResetWarning,0820.6,5.00,000.00,023.6,023.3,000.0,031.6,025.5,013.8,0000.0,0004.61,0002.87,0002.05
2024-05-17 22:58:00,SystemResetWarning,0820.7,4.99,000.00,023.6,022.2,000.0,031.7,025.0,013.7,0000.0,0004.78,0002.90,0002.06
2024-05-17 22:59:00,SystemResetWarning,0820.5,5.01,000.00,023.3,020.7,000.0,031.7,024.2,014.3,0000.0,0005.05,0002.93,0002.05
